Winner, SD

5:13 PM CST on December 07, 2016 (GMT -0600)
Winner

Weather History for KICR - October, 2013

Change the Weather History Date:

Sunday, October 13, 2013

  Actual Average Record
Temperature  
Mean Temperature 54 °F 52 °F  
Max Temperature 69 °F 64 °F 74 °F (2015)
Min Temperature 39 °F 40 °F 36 °F (2008)
Degree Days  
Heating Degree Days 11 13  
Month to date heating degree days 130 146  
Since 1 July heating degree days 185 288  
Cooling Degree Days 0 0  
Month to date cooling degree days 2 9  
Year to date cooling degree days 1014 915  
Growing Degree Days 4 (Base 50)    
Moisture  
Dew Point 32 °F    
Average Humidity 45    
Maximum Humidity 67    
Minimum Humidity 23    
Precipitation  
Precipitation 0.00 in 0.06 in 0.83 in (2007)
Month to date precipitation 2.83 0.76  
Year to date precipitation 19.56 19.75  
Sea Level Pressure  
Sea Level Pressure 30.25 in    
Wind  
Wind Speed 13 mph (SE)    
Max Wind Speed 25 mph    
Max Gust Speed 33 mph    
Visibility 10 miles    
Events      
T = Trace of Precipitation, MM = Missing Value Source: NWS Daily Summary

Daily Weather History Graph

Daily Weather History Graph

Search for Another Location

Airport or City:

Trip Planner

Search our weather history database for the weather conditions in past years. The results will help you decide how hot, cold, wet, or windy it might be!

Date:

Astronomy

Oct. 13, 2013 Rise Set
Actual Time 7:51 AM CDT 6:59 PM CDT
Civil Twilight 7:22 AM CDT 7:27 PM CDT
Nautical Twilight 6:49 AM CDT 8:00 PM CDT
Astronomical Twilight 6:16 AM CDT 8:33 PM CDT
Moon 3:59 PM CDT (10/13) 1:53 AM CDT (10/13)
Length of Visible Light 12h 05m
Length of Day
11h 07m
Waxing Gibbous, 69% of the Moon is Illuminated
Oct 13
Waxing Gibbous
Oct 18
Full
Oct 26
Last Quarter
Nov 3
New
Nov 9
First Quarter

Hourly Weather History & Observations

Time (CDT) Temp. Windchill Dew Point Humidity Pressure Visibility Wind Dir Wind Speed Gust Speed Precip Events Conditions
12:53 AM 39.9 °F 34.5 °F 28.0 °F 63% 30.29 in 10.0 mi SSE 8.1 mph - N/A   Clear
1:53 AM 41.0 °F 35.8 °F 28.0 °F 60% 30.30 in 10.0 mi SE 8.1 mph - N/A   Clear
2:53 AM 39.9 °F 35.1 °F 28.0 °F 63% 30.32 in 10.0 mi SSE 6.9 mph - N/A   Clear
3:53 AM 42.1 °F 37.1 °F 30.0 °F 62% 30.30 in 10.0 mi SSE 8.1 mph - N/A   Overcast
4:53 AM 44.1 °F 39.5 °F 30.9 °F 60% 30.30 in 10.0 mi SE 8.1 mph - N/A   Overcast
5:53 AM 44.1 °F 39.0 °F 30.9 °F 60% 30.31 in 10.0 mi SE 9.2 mph - N/A   Overcast
6:53 AM 44.1 °F 40.1 °F 32.0 °F 63% 30.32 in 10.0 mi ESE 6.9 mph - N/A   Scattered Clouds
7:53 AM 43.0 °F 38.8 °F 32.0 °F 65% 30.34 in 10.0 mi NE 6.9 mph - N/A   Overcast
8:53 AM 44.1 °F 39.0 °F 33.1 °F 65% 30.35 in 10.0 mi ESE 9.2 mph - N/A   Overcast
9:53 AM 46.9 °F - 33.1 °F 59% 30.36 in 10.0 mi ESE 9.2 mph - N/A   Mostly Cloudy
10:53 AM 54.0 °F - 32.0 °F 43% 30.34 in 10.0 mi SE 15.0 mph - N/A   Mostly Cloudy
11:53 AM 57.0 °F - 32.0 °F 39% 30.32 in 10.0 mi SSE 16.1 mph - N/A   Mostly Cloudy
12:53 PM 63.0 °F - 32.0 °F 31% 30.28 in 10.0 mi South 20.7 mph 29.9 mph N/A   Mostly Cloudy
1:53 PM 64.0 °F - 30.9 °F 29% 30.24 in 10.0 mi SSE 19.6 mph 26.5 mph N/A   Clear
2:53 PM 69.1 °F - 30.9 °F 24% 30.20 in 10.0 mi SSE 17.3 mph 29.9 mph N/A   Mostly Cloudy
3:53 PM 66.9 °F - 28.9 °F 24% 30.18 in 10.0 mi South 18.4 mph 31.1 mph N/A   Mostly Cloudy
4:53 PM 69.1 °F - 30.9 °F 24% 30.17 in 10.0 mi SSE 16.1 mph 26.5 mph N/A   Mostly Cloudy
5:53 PM 66.0 °F - 30.9 °F 27% 30.15 in 10.0 mi SSE 13.8 mph 26.5 mph N/A   Clear
6:53 PM 63.0 °F - 30.9 °F 30% 30.16 in 10.0 mi SE 13.8 mph - N/A   Clear
7:53 PM 53.1 °F - 34.0 °F 48% 30.18 in 10.0 mi SE 8.1 mph - N/A   Clear
8:53 PM 52.0 °F - 35.1 °F 53% 30.19 in 10.0 mi ESE 8.1 mph - N/A   Clear
9:53 PM 53.1 °F - 36.0 °F 52% 30.19 in 10.0 mi ESE 6.9 mph - N/A   Clear
10:53 PM 55.0 °F - 35.1 °F 47% 30.16 in 10.0 mi SSE 13.8 mph - N/A   Clear
11:53 PM 55.9 °F - 35.1 °F 45% 30.15 in 10.0 mi SSE 18.4 mph - N/A   Mostly Cloudy